New York Downtown Manhattan/w, NY

12:54 PM EDT on October 20, 2019 (GMT -0400)
New York Downtown Manhattan/w

Weather History for KJRB - August, 2019

Change the Weather History Date:

Tuesday, August 13, 2019

  Actual Average (WUND) Record (WUND)
Temperature  
Mean Temperature 78 °F -  
Max Temperature 82 °F - - (-1)
Min Temperature 73 °F - - (-1)
Cooling Degree Days 12    
Growing Degree Days 28 (Base 50)    
Moisture  
Dew Point 69 °F    
Average Humidity 78    
Maximum Humidity 87    
Minimum Humidity 67    
Precipitation  
Precipitation 0.01 in - - ()
Sea Level Pressure  
Sea Level Pressure 29.81 in    
Wind  
Wind Speed 6 mph (SW)    
Max Wind Speed 10 mph    
Max Gust Speed 43 mph    
Visibility 10 miles    
Events      
Averages and records for this station are not official NWS values.
T = Trace of Precipitation, MM = Missing Value Source: NWS Daily Summary

Daily Weather History Graph

Daily Weather History Graph

Search for Another Location

Airport or City:

Astronomy

Aug. 13, 2019 Rise Set
Actual Time 6:04 AM EDT 7:57 PM EDT
Civil Twilight 5:34 AM EDT 8:26 PM EDT
Nautical Twilight 4:58 AM EDT 9:02 PM EDT
Astronomical Twilight 4:19 AM EDT 9:41 PM EDT
Moon 7:10 PM EDT (8/13) 4:02 AM EDT (8/13)
Length of Visible Light 14h 51m
Length of Day
13h 52m
Waxing Gibbous, 97% of the Moon is Illuminated
Aug 13
Waxing Gibbous
Aug 15
Full
Aug 23
Last Quarter
Aug 30
New
Sep 5
First Quarter

Hourly Weather History & Observations

Time (EDT) Temp. Heat Index Dew Point Humidity Pressure Visibility Wind Dir Wind Speed Gust Speed Precip Events Conditions
12:56 AM 77.0 °F - 66.0 °F 69% 29.88 in 10.0 mi West 5.8 mph - N/A   Clear
1:56 AM 75.9 °F - 66.9 °F 74% 29.87 in 10.0 mi West 5.8 mph - N/A   Scattered Clouds
2:56 AM 77.0 °F - 66.9 °F 71% 29.86 in 10.0 mi West 5.8 mph - N/A   Overcast
3:56 AM 75.0 °F - 69.1 °F 82% 29.84 in 10.0 mi West 5.8 mph - N/A   Mostly Cloudy
4:56 AM 73.9 °F - 69.1 °F 85% 29.83 in 10.0 mi WSW 4.6 mph - 0.00 in   Overcast
5:56 AM 75.0 °F - 68.0 °F 79% 29.84 in 10.0 mi WSW 6.9 mph - N/A   Mostly Cloudy
6:56 AM 75.0 °F - 68.0 °F 79% 29.83 in 10.0 mi WSW 6.9 mph - N/A   Overcast
7:56 AM 73.9 °F - 69.1 °F 85% 29.83 in 10.0 mi SW 4.6 mph - 0.00 in   Mostly Cloudy
8:56 AM 75.0 °F - 69.1 °F 82% 29.83 in 7.0 mi SW 5.8 mph - N/A   Scattered Clouds
9:56 AM 75.9 °F - 69.1 °F 79% 29.83 in 10.0 mi SW 5.8 mph - N/A   Scattered Clouds
10:56 AM 77.0 °F - 69.1 °F 76% 29.84 in 10.0 mi West 6.9 mph - 0.01 in   Overcast
11:42 AM 78.8 °F - 69.8 °F 74% 29.84 in 10.0 mi WSW 6.9 mph - N/A   Overcast
11:56 AM 78.1 °F - 70.0 °F 76% 29.84 in 10.0 mi WSW 10.4 mph - N/A   Overcast
12:42 PM 77.0 °F - 71.6 °F 83% 29.84 in 10.0 mi West 5.8 mph - 0.00 in   Mostly Cloudy
12:56 PM 78.1 °F - 71.1 °F 79% 29.84 in 10.0 mi West 6.9 mph - 0.00 in   Mostly Cloudy
1:56 PM 78.1 °F - 69.1 °F 74% 29.81 in 10.0 mi ENE 4.6 mph - N/A   Overcast
2:56 PM 82.0 °F 85.9 °F 70.0 °F 67% 29.78 in 10.0 mi NNE 4.6 mph - N/A   Scattered Clouds
3:56 PM 81.0 °F 84.1 °F 69.1 °F 67% 29.79 in 10.0 mi West 3.5 mph - N/A   Overcast
4:56 PM 80.1 °F 83.2 °F 70.0 °F 71% 29.78 in 10.0 mi South 6.9 mph - N/A   Mostly Cloudy
5:30 PM 78.8 °F - 71.6 °F 78% 29.78 in 10.0 mi Variable 4.6 mph - N/A   Mostly Cloudy
5:39 PM 78.8 °F - 69.8 °F 74% 29.78 in 10.0 mi SSW 6.9 mph - N/A   Scattered Clouds
5:56 PM 79.0 °F - 71.1 °F 77% 29.78 in 10.0 mi South 5.8 mph - N/A   Clear
6:31 PM 78.8 °F - 69.8 °F 74% 29.78 in 9.0 mi South 8.1 mph - N/A   Mostly Cloudy
6:40 PM 78.8 °F - 69.8 °F 74% 29.79 in 9.0 mi SSE 8.1 mph - N/A   Scattered Clouds
6:56 PM 77.0 °F - 70.0 °F 79% 29.78 in 10.0 mi SSE 8.1 mph 42.6 mph N/A   Scattered Clouds
7:56 PM 75.9 °F - 69.1 °F 79% 29.78 in 10.0 mi South 4.6 mph - N/A   Partly Cloudy
8:56 PM 75.9 °F - 70.0 °F 82% 29.79 in 10.0 mi Calm Calm - N/A   Overcast
9:56 PM 75.9 °F - 70.0 °F 82% 29.79 in 10.0 mi Calm Calm - N/A   Scattered Clouds
10:56 PM 75.0 °F - 71.1 °F 87% 29.80 in 10.0 mi Calm Calm - N/A   Overcast
11:56 PM 75.0 °F - 71.1 °F 87% 29.80 in 10.0 mi Calm Calm - N/A   Mostly Cloudy